Time,TemperatureF,DewpointF,PressureIn,WindDirection,WindDirectionDegrees,WindSpeedMPH,WindSpeedGustMPH,Humidity,HourlyPrecipIn,Conditions,Clouds,dailyrainin,SoftwareType,DateUTC
2013-06-12 00:02:00,63.2,0.0,29.91,West,260,6.0,10.0,0,0.00,,,0.00,Weather View 32 v70,2013-06-12 07:02:00,
2013-06-12 00:07:00,63.4,0.0,29.91,NW,304,3.0,10.0,0,0.00,,,0.00,Weather View 32 v70,2013-06-12 07:07:00,
2013-06-12 00:13:00,63.2,0.0,29.92,SW,225,1.0,10.0,0,0.00,,,0.00,Weather View 32 v70,2013-06-12 07:13:00,
2013-06-12 00:18:00,63.2,0.0,29.92,WNW,288,4.0,10.0,0,0.00,,,0.00,Weather View 32 v70,2013-06-12 07:18:00,
2013-06-12 00:23:00,62.8,0.0,29.92,WNW,297,3.0,10.0,0,0.00,,,0.00,Weather View 32 v70,2013-06-12 07:23:00,
2013-06-12 00:28:00,62.9,0.0,29.92,West,274,2.0,10.0,0,0.00,,,0.00,Weather View 32 v70,2013-06-12 07:28:00,
2013-06-12 00:33:00,63.2,0.0,29.92,WNW,283,0.0,10.0,0,0.00,,,0.00,Weather View 32 v70,2013-06-12 07:33:00,
2013-06-12 00:38:00,62.8,0.0,29.92,West,278,2.0,10.0,0,0.00,,,0.00,Weather View 32 v70,2013-06-12 07:38:00,
2013-06-12 00:43:00,62.7,0.0,29.92,WNW,285,2.0,10.0,0,0.00,,,0.00,Weather View 32 v70,2013-06-12 07:43:00,
2013-06-12 00:48:00,62.8,0.0,29.92,West,277,4.0,10.0,0,0.00,,,0.00,Weather View 32 v70,2013-06-12 07:48:00,
2013-06-12 00:53:00,62.4,0.0,29.92,WSW,249,4.0,10.0,0,0.00,,,0.00,Weather View 32 v70,2013-06-12 07:53:00,
2013-06-12 00:58:00,62.4,0.0,29.92,West,274,3.0,10.0,0,0.00,,,0.00,Weather View 32 v70,2013-06-12 07:58:00,
2013-06-12 01:03:00,62.3,0.0,29.92,WSW,239,2.0,9.0,0,0.00,,,0.00,Weather View 32 v70,2013-06-12 08:03:00,
2013-06-12 01:08:00,62.5,0.0,29.92,West,271,4.0,9.0,0,0.00,,,0.00,Weather View 32 v70,2013-06-12 08:08:00,
2013-06-12 01:13:00,62.5,0.0,29.92,West,281,6.0,9.0,0,0.00,,,0.00,Weather View 32 v70,2013-06-12 08:13:00,
2013-06-12 01:18:00,61.8,0.0,29.92,SW,233,6.0,8.0,0,0.00,,,0.00,Weather View 32 v70,2013-06-12 08:18:00,
2013-06-12 01:23:00,61.9,0.0,29.93,WSW,242,2.0,8.0,0,0.00,,,0.00,Weather View 32 v70,2013-06-12 08:23:00,
2013-06-12 01:28:00,61.6,0.0,29.93,SW,214,5.0,11.0,0,0.00,,,0.00,Weather View 32 v70,2013-06-12 08:28:00,
2013-06-12 01:33:00,61.5,0.0,29.93,WNW,301,4.0,11.0,0,0.00,,,0.00,Weather View 32 v70,2013-06-12 08:33:00,
2013-06-12 01:38:00,61.6,0.0,29.93,West,277,6.0,11.0,0,0.00,,,0.00,Weather View 32 v70,2013-06-12 08:38:00,
2013-06-12 01:43:00,61.5,0.0,29.93,SSW,201,1.0,11.0,0,0.00,,,0.00,Weather View 32 v70,2013-06-12 08:43:00,
2013-06-12 01:48:00,61.6,0.0,29.93,WSW,246,7.0,12.0,0,0.00,,,0.00,Weather View 32 v70,2013-06-12 08:48:00,
2013-06-12 01:53:00,61.0,0.0,29.93,NW,325,3.0,12.0,0,0.00,,,0.00,Weather View 32 v70,2013-06-12 08:53:00,
2013-06-12 01:58:00,60.8,0.0,29.92,SW,228,5.0,12.0,0,0.00,,,0.00,Weather View 32 v70,2013-06-12 08:58:00,
2013-06-12 02:03:00,60.6,0.0,29.93,West,260,5.0,12.0,0,0.00,,,0.00,Weather View 32 v70,2013-06-12 09:03:00,
2013-06-12 02:08:00,60.6,0.0,29.93,WSW,249,3.0,12.0,0,0.00,,,0.00,Weather View 32 v70,2013-06-12 09:08:00,
2013-06-12 02:13:00,61.0,0.0,29.93,SSW,200,4.0,12.0,0,0.00,,,0.00,Weather View 32 v70,2013-06-12 09:13:00,
2013-06-12 02:18:00,60.8,0.0,29.93,West,264,2.0,12.0,0,0.00,,,0.00,Weather View 32 v70,2013-06-12 09:18:00,
2013-06-12 02:23:00,60.6,0.0,29.93,SSW,205,2.0,12.0,0,0.00,,,0.00,Weather View 32 v70,2013-06-12 09:23:00,
2013-06-12 02:28:00,60.6,0.0,29.93,SSE,152,1.0,12.0,0,0.00,,,0.00,Weather View 32 v70,2013-06-12 09:28:00,
2013-06-12 02:33:00,60.5,0.0,29.93,West,273,3.0,12.0,0,0.00,,,0.00,Weather View 32 v70,2013-06-12 09:33:00,
2013-06-12 02:38:00,60.2,0.0,29.93,SW,225,5.0,12.0,0,0.00,,,0.00,Weather View 32 v70,2013-06-12 09:38:00,
2013-06-12 02:43:00,60.5,0.0,29.93,WSW,240,4.0,12.0,0,0.00,,,0.00,Weather View 32 v70,2013-06-12 09:43:00,
2013-06-12 02:48:00,60.5,0.0,29.93,WSW,252,0.0,11.0,0,0.00,,,0.00,Weather View 32 v70,2013-06-12 09:48:00,
2013-06-12 02:53:00,60.0,0.0,29.93,West,269,3.0,11.0,0,0.00,,,0.00,Weather View 32 v70,2013-06-12 09:53:00,
2013-06-12 02:58:00,60.0,0.0,29.93,West,269,4.0,11.0,0,0.00,,,0.00,Weather View 32 v70,2013-06-12 09:58:00,
2013-06-12 03:03:00,59.6,0.0,29.93,WSW,252,6.0,11.0,0,0.00,,,0.00,Weather View 32 v70,2013-06-12 10:03:00,
2013-06-12 03:08:00,59.7,0.0,29.93,WSW,249,2.0,11.0,0,0.00,,,0.00,Weather View 32 v70,2013-06-12 10:08:00,
2013-06-12 03:13:00,59.5,0.0,29.93,SW,229,6.0,11.0,0,0.00,,,0.00,Weather View 32 v70,2013-06-12 10:13:00,
2013-06-12 03:18:00,59.7,0.0,29.93,West,276,4.0,11.0,0,0.00,,,0.00,Weather View 32 v70,2013-06-12 10:18:00,
2013-06-12 03:23:00,59.4,0.0,29.93,SW,217,1.0,11.0,0,0.00,,,0.00,Weather View 32 v70,2013-06-12 10:23:00,
2013-06-12 03:28:00,59.4,0.0,29.93,West,276,4.0,11.0,0,0.00,,,0.00,Weather View 32 v70,2013-06-12 10:28:00,
2013-06-12 03:33:00,59.4,0.0,29.93,West,271,2.0,11.0,0,0.00,,,0.00,Weather View 32 v70,2013-06-12 10:33:00,
2013-06-12 03:38:00,59.2,0.0,29.93,WNW,297,2.0,11.0,0,0.00,,,0.00,Weather View 32 v70,2013-06-12 10:38:00,
2013-06-12 03:43:00,59.2,0.0,29.93,West,264,5.0,11.0,0,0.00,,,0.00,Weather View 32 v70,2013-06-12 10:43:00,
2013-06-12 03:48:00,59.4,0.0,29.93,WSW,249,4.0,11.0,0,0.00,,,0.00,Weather View 32 v70,2013-06-12 10:48:00,
2013-06-12 03:53:00,59.0,0.0,29.93,WSW,256,6.0,12.0,0,0.00,,,0.00,Weather View 32 v70,2013-06-12 10:53:00,
2013-06-12 03:58:00,58.9,0.0,29.93,WNW,283,4.0,12.0,0,0.00,,,0.00,Weather View 32 v70,2013-06-12 10:58:00,
2013-06-12 04:03:00,59.0,0.0,29.93,WSW,252,5.0,12.0,0,0.00,,,0.00,Weather View 32 v70,2013-06-12 11:03:00,
2013-06-12 04:08:00,59.1,0.0,29.93,WNW,294,3.0,12.0,0,0.00,,,0.00,Weather View 32 v70,2013-06-12 11:08:00,
2013-06-12 04:13:00,58.9,0.0,29.93,SW,233,7.0,12.0,0,0.00,,,0.00,Weather View 32 v70,2013-06-12 11:13:00,
2013-06-12 04:18:00,58.9,0.0,29.93,SW,236,3.0,12.0,0,0.00,,,0.00,Weather View 32 v70,2013-06-12 11:18:00,
2013-06-12 04:23:00,58.7,0.0,29.93,West,262,4.0,12.0,0,0.00,,,0.00,Weather View 32 v70,2013-06-12 11:23:00,
2013-06-12 04:28:00,58.7,0.0,29.94,West,263,2.0,12.0,0,0.00,,,0.00,Weather View 32 v70,2013-06-12 11:28:00,
2013-06-12 04:33:00,58.5,0.0,29.94,WSW,245,3.0,12.0,0,0.00,,,0.00,Weather View 32 v70,2013-06-12 11:33:00,
2013-06-12 04:38:00,58.4,0.0,29.94,SW,229,0.0,12.0,0,0.00,,,0.00,Weather View 32 v70,2013-06-12 11:38:00,
2013-06-12 04:43:00,58.8,0.0,29.94,West,262,4.0,12.0,0,0.00,,,0.00,Weather View 32 v70,2013-06-12 11:43:00,
2013-06-12 04:48:00,58.5,0.0,29.94,WSW,255,5.0,14.0,0,0.00,,,0.00,Weather View 32 v70,2013-06-12 11:48:00,
2013-06-12 04:53:00,58.6,0.0,29.94,WSW,256,5.0,14.0,0,0.00,,,0.00,Weather View 32 v70,2013-06-12 11:53:00,
2013-06-12 04:58:00,58.2,0.0,29.94,West,267,8.0,14.0,0,0.00,,,0.00,Weather View 32 v70,2013-06-12 11:58:00,
2013-06-12 05:03:00,58.3,0.0,29.95,WSW,240,5.0,14.0,0,0.00,,,0.00,Weather View 32 v70,2013-06-12 12:03:00,
2013-06-12 05:08:00,58.3,0.0,29.95,WNW,285,4.0,14.0,0,0.00,,,0.00,Weather View 32 v70,2013-06-12 12:08:00,
2013-06-12 05:13:00,58.5,0.0,29.95,WSW,238,5.0,14.0,0,0.00,,,0.00,Weather View 32 v70,2013-06-12 12:13:00,
2013-06-12 05:18:00,58.4,0.0,29.95,SW,231,3.0,14.0,0,0.00,,,0.00,Weather View 32 v70,2013-06-12 12:18:00,
2013-06-12 05:23:00,58.0,0.0,29.95,West,271,5.0,14.0,0,0.00,,,0.00,Weather View 32 v70,2013-06-12 12:23:00,
2013-06-12 05:28:00,57.9,0.0,29.95,WNW,290,7.0,14.0,0,0.00,,,0.00,Weather View 32 v70,2013-06-12 12:28:00,
2013-06-12 05:33:00,58.2,0.0,29.95,WSW,246,4.0,14.0,0,0.00,,,0.00,Weather View 32 v70,2013-06-12 12:33:00,
2013-06-12 05:38:00,58.2,0.0,29.95,WNW,291,2.0,14.0,0,0.00,,,0.00,Weather View 32 v70,2013-06-12 12:38:00,
2013-06-12 05:43:00,58.1,0.0,29.96,WSW,257,5.0,14.0,0,0.00,,,0.00,Weather View 32 v70,2013-06-12 12:43:00,
2013-06-12 05:48:00,57.7,0.0,29.96,SSE,163,0.0,14.0,0,0.00,,,0.00,Weather View 32 v70,2013-06-12 12:48:00,
2013-06-12 05:53:00,57.3,0.0,29.96,SSE,150,0.0,14.0,0,0.00,,,0.00,Weather View 32 v70,2013-06-12 12:53:00,
2013-06-12 05:58:00,57.1,0.0,29.96,SSE,150,0.0,11.0,0,0.00,,,0.00,Weather View 32 v70,2013-06-12 12:58:00,
2013-06-12 06:03:00,57.1,0.0,29.96,WSW,243,3.0,11.0,0,0.00,,,0.00,Weather View 32 v70,2013-06-12 13:03:00,
2013-06-12 06:08:00,57.5,0.0,29.97,SW,226,0.0,10.0,0,0.00,,,0.00,Weather View 32 v70,2013-06-12 13:08:00,
2013-06-12 06:13:00,57.9,0.0,29.97,SW,229,2.0,10.0,0,0.00,,,0.00,Weather View 32 v70,2013-06-12 13:13:00,
2013-06-12 06:18:00,58.0,0.0,29.97,SSW,211,1.0,9.0,0,0.00,,,0.00,Weather View 32 v70,2013-06-12 13:18:00,
2013-06-12 06:23:00,58.1,0.0,29.97,WSW,246,5.0,8.0,0,0.00,,,0.00,Weather View 32 v70,2013-06-12 13:23:00,
2013-06-12 06:28:00,58.2,0.0,29.97,WSW,243,3.0,8.0,0,0.00,,,0.00,Weather View 32 v70,2013-06-12 13:28:00,
2013-06-12 06:33:00,58.5,0.0,29.97,West,259,3.0,7.0,0,0.00,,,0.00,Weather View 32 v70,2013-06-12 13:33:00,
2013-06-12 06:38:00,58.1,0.0,29.97,West,276,5.0,7.0,0,0.00,,,0.00,Weather View 32 v70,2013-06-12 13:38:00,
2013-06-12 06:43:00,58.7,0.0,29.97,WSW,257,5.0,7.0,0,0.00,,,0.00,Weather View 32 v70,2013-06-12 13:43:00,
2013-06-12 06:48:00,58.6,0.0,29.97,SW,226,3.0,7.0,0,0.00,,,0.00,Weather View 32 v70,2013-06-12 13:48:00,
2013-06-12 06:53:00,58.8,0.0,29.97,WSW,242,6.0,9.0,0,0.00,,,0.00,Weather View 32 v70,2013-06-12 13:53:00,
2013-06-12 06:58:00,59.5,0.0,29.97,WSW,249,2.0,9.0,0,0.00,,,0.00,Weather View 32 v70,2013-06-12 13:58:00,
2013-06-12 07:03:00,59.9,0.0,29.97,SSW,207,1.0,9.0,0,0.00,,,0.00,Weather View 32 v70,2013-06-12 14:03:00,
2013-06-12 07:08:00,60.1,0.0,29.97,WSW,248,0.0,9.0,0,0.00,,,0.00,Weather View 32 v70,2013-06-12 14:08:00,
2013-06-12 07:13:00,60.4,0.0,29.97,WSW,243,1.0,9.0,0,0.00,,,0.00,Weather View 32 v70,2013-06-12 14:13:00,
2013-06-12 07:18:00,60.7,0.0,29.97,SW,224,0.0,9.0,0,0.00,,,0.00,Weather View 32 v70,2013-06-12 14:18:00,
2013-06-12 07:23:00,60.9,0.0,29.97,West,270,3.0,9.0,0,0.00,,,0.00,Weather View 32 v70,2013-06-12 14:23:00,
2013-06-12 07:28:00,61.5,0.0,29.98,SW,231,6.0,9.0,0,0.00,,,0.00,Weather View 32 v70,2013-06-12 14:28:00,
2013-06-12 07:33:00,61.5,0.0,29.98,WSW,245,8.0,9.0,0,0.00,,,0.00,Weather View 32 v70,2013-06-12 14:33:00,
2013-06-12 07:38:00,61.8,0.0,29.98,SW,218,4.0,9.0,0,0.00,,,0.00,Weather View 32 v70,2013-06-12 14:38:00,
2013-06-12 07:43:00,62.1,0.0,29.98,SSW,203,1.0,9.0,0,0.00,,,0.00,Weather View 32 v70,2013-06-12 14:43:00,
2013-06-12 07:48:00,63.0,0.0,29.98,WSW,239,1.0,9.0,0,0.00,,,0.00,Weather View 32 v70,2013-06-12 14:48:00,
2013-06-12 07:53:00,63.6,0.0,29.97,SW,231,3.0,9.0,0,0.00,,,0.00,Weather View 32 v70,2013-06-12 14:53:00,
2013-06-12 07:58:00,64.3,0.0,29.98,SSW,197,4.0,9.0,0,0.00,,,0.00,Weather View 32 v70,2013-06-12 14:58:00,
2013-06-12 08:03:00,64.1,0.0,29.98,SW,222,1.0,9.0,0,0.00,,,0.00,Weather View 32 v70,2013-06-12 15:03:00,
2013-06-12 08:08:00,64.4,0.0,29.98,WSW,243,3.0,9.0,0,0.00,,,0.00,Weather View 32 v70,2013-06-12 15:08:00,
2013-06-12 08:13:00,65.2,0.0,29.98,SSE,162,4.0,9.0,0,0.00,,,0.00,Weather View 32 v70,2013-06-12 15:13:00,
2013-06-12 08:18:00,65.1,0.0,29.98,SW,224,6.0,10.0,0,0.00,,,0.00,Weather View 32 v70,2013-06-12 15:18:00,
2013-06-12 08:23:00,65.3,0.0,29.98,South,184,4.0,11.0,0,0.00,,,0.00,Weather View 32 v70,2013-06-12 15:23:00,
2013-06-12 08:28:00,65.7,0.0,29.98,West,263,5.0,11.0,0,0.00,,,0.00,Weather View 32 v70,2013-06-12 15:28:00,
2013-06-12 08:33:00,66.4,0.0,29.98,SW,226,6.0,11.0,0,0.00,,,0.00,Weather View 32 v70,2013-06-12 15:33:00,
2013-06-12 08:38:00,66.4,0.0,29.98,South,191,6.0,11.0,0,0.00,,,0.00,Weather View 32 v70,2013-06-12 15:38:00,
2013-06-12 08:43:00,66.7,0.0,29.98,SW,225,6.0,11.0,0,0.00,,,0.00,Weather View 32 v70,2013-06-12 15:43:00,
2013-06-12 08:48:00,67.1,0.0,29.98,SW,224,4.0,11.0,0,0.00,,,0.00,Weather View 32 v70,2013-06-12 15:48:00,
2013-06-12 08:53:00,67.7,0.0,29.98,SW,218,4.0,11.0,0,0.00,,,0.00,Weather View 32 v70,2013-06-12 15:53:00,
2013-06-12 08:58:00,68.0,0.0,29.98,SSW,203,2.0,11.0,0,0.00,,,0.00,Weather View 32 v70,2013-06-12 15:58:00,
2013-06-12 09:03:00,68.2,0.0,29.98,SSW,200,4.0,11.0,0,0.00,,,0.00,Weather View 32 v70,2013-06-12 16:03:00,
2013-06-12 09:08:00,68.6,0.0,29.98,WSW,243,0.0,11.0,0,0.00,,,0.00,Weather View 32 v70,2013-06-12 16:08:00,
2013-06-12 09:13:00,69.3,0.0,29.98,WSW,242,5.0,11.0,0,0.00,,,0.00,Weather View 32 v70,2013-06-12 16:13:00,
2013-06-12 09:18:00,69.6,0.0,29.98,South,172,4.0,11.0,0,0.00,,,0.00,Weather View 32 v70,2013-06-12 16:18:00,
2013-06-12 09:23:00,69.7,0.0,29.98,SSW,201,5.0,9.0,0,0.00,,,0.00,Weather View 32 v70,2013-06-12 16:23:00,
2013-06-12 09:28:00,70.1,0.0,29.98,South,174,4.0,9.0,0,0.00,,,0.00,Weather View 32 v70,2013-06-12 16:28:00,
2013-06-12 09:33:00,71.5,0.0,29.98,WSW,245,2.0,9.0,0,0.00,,,0.00,Weather View 32 v70,2013-06-12 16:33:00,
2013-06-12 09:38:00,71.0,0.0,29.98,SSW,204,7.0,9.0,0,0.00,,,0.00,Weather View 32 v70,2013-06-12 16:38:00,
2013-06-12 09:43:00,71.0,0.0,29.98,South,181,6.0,9.0,0,0.00,,,0.00,Weather View 32 v70,2013-06-12 16:43:00,
2013-06-12 09:48:00,72.0,0.0,29.98,SSE,160,2.0,9.0,0,0.00,,,0.00,Weather View 32 v70,2013-06-12 16:48:00,
2013-06-12 09:53:00,72.2,0.0,29.98,SW,214,6.0,10.0,0,0.00,,,0.00,Weather View 32 v70,2013-06-12 16:53:00,
2013-06-12 09:58:00,72.7,0.0,29.98,SW,232,5.0,10.0,0,0.00,,,0.00,Weather View 32 v70,2013-06-12 16:58:00,
2013-06-12 10:03:00,73.7,0.0,29.99,SSW,208,3.0,10.0,0,0.00,,,0.00,Weather View 32 v70,2013-06-12 17:03:00,
2013-06-12 10:08:00,73.4,0.0,29.98,South,176,6.0,10.0,0,0.00,,,0.00,Weather View 32 v70,2013-06-12 17:08:00,
2013-06-12 10:13:00,74.0,0.0,29.98,SSW,208,1.0,10.0,0,0.00,,,0.00,Weather View 32 v70,2013-06-12 17:13:00,
2013-06-12 10:18:00,73.5,0.0,29.98,SW,214,3.0,10.0,0,0.00,,,0.00,Weather View 32 v70,2013-06-12 17:18:00,
2013-06-12 10:23:00,74.3,0.0,29.98,SSE,160,5.0,10.0,0,0.00,,,0.00,Weather View 32 v70,2013-06-12 17:23:00,
2013-06-12 10:28:00,74.3,0.0,29.98,SW,226,6.0,10.0,0,0.00,,,0.00,Weather View 32 v70,2013-06-12 17:28:00,
2013-06-12 10:33:00,75.1,0.0,29.98,South,172,5.0,10.0,0,0.00,,,0.00,Weather View 32 v70,2013-06-12 17:33:00,
2013-06-12 10:38:00,74.2,0.0,29.98,SSW,194,1.0,10.0,0,0.00,,,0.00,Weather View 32 v70,2013-06-12 17:38:00,
2013-06-12 10:43:00,76.3,0.0,29.98,SSW,208,7.0,10.0,0,0.00,,,0.00,Weather View 32 v70,2013-06-12 17:43:00,
2013-06-12 10:48:00,75.8,0.0,29.98,South,180,6.0,10.0,0,0.00,,,0.00,Weather View 32 v70,2013-06-12 17:48:00,
2013-06-12 10:53:00,75.7,0.0,29.98,SSW,194,4.0,10.0,0,0.00,,,0.00,Weather View 32 v70,2013-06-12 17:53:00,
2013-06-12 10:58:00,77.2,0.0,29.98,South,172,2.0,10.0,0,0.00,,,0.00,Weather View 32 v70,2013-06-12 17:58:00,
2013-06-12 11:03:00,77.8,0.0,29.98,SSE,155,5.0,10.0,0,0.00,,,0.00,Weather View 32 v70,2013-06-12 18:03:00,
2013-06-12 11:08:00,76.8,0.0,29.98,SSE,150,3.0,10.0,0,0.00,,,0.00,Weather View 32 v70,2013-06-12 18:08:00,
2013-06-12 11:13:00,77.1,0.0,29.98,West,260,8.0,10.0,0,0.00,,,0.00,Weather View 32 v70,2013-06-12 18:13:00,
2013-06-12 11:18:00,77.9,0.0,29.98,SW,214,7.0,11.0,0,0.00,,,0.00,Weather View 32 v70,2013-06-12 18:18:00,
2013-06-12 11:23:00,78.2,0.0,29.98,South,172,6.0,11.0,0,0.00,,,0.00,Weather View 32 v70,2013-06-12 18:23:00,
2013-06-12 11:28:00,79.3,0.0,29.98,South,186,3.0,11.0,0,0.00,,,0.00,Weather View 32 v70,2013-06-12 18:28:00,
2013-06-12 11:33:00,80.6,0.0,29.98,SW,222,5.0,11.0,0,0.00,,,0.00,Weather View 32 v70,2013-06-12 18:33:00,
2013-06-12 11:38:00,80.8,0.0,29.98,SW,229,5.0,12.0,0,0.00,,,0.00,Weather View 32 v70,2013-06-12 18:38:00,
2013-06-12 11:43:00,80.2,0.0,29.98,SW,233,7.0,12.0,0,0.00,,,0.00,Weather View 32 v70,2013-06-12 18:43:00,
2013-06-12 11:48:00,79.9,0.0,29.98,SW,215,6.0,12.0,0,0.00,,,0.00,Weather View 32 v70,2013-06-12 18:48:00,
2013-06-12 11:53:00,81.0,0.0,29.98,South,174,6.0,12.0,0,0.00,,,0.00,Weather View 32 v70,2013-06-12 18:53:00,
2013-06-12 11:58:00,81.4,0.0,29.98,SSW,195,5.0,12.0,0,0.00,,,0.00,Weather View 32 v70,2013-06-12 18:58:00,
2013-06-12 12:03:00,81.9,0.0,29.97,South,188,5.0,12.0,0,0.00,,,0.00,Weather View 32 v70,2013-06-12 19:03:00,
2013-06-12 12:08:00,80.6,0.0,29.97,SW,215,6.0,12.0,0,0.00,,,0.00,Weather View 32 v70,2013-06-12 19:08:00,
2013-06-12 12:13:00,81.6,0.0,29.97,SSW,198,2.0,12.0,0,0.00,,,0.00,Weather View 32 v70,2013-06-12 19:13:00,
2013-06-12 12:18:00,82.9,0.0,29.97,SE,138,3.0,12.0,0,0.00,,,0.00,Weather View 32 v70,2013-06-12 19:18:00,
2013-06-12 12:23:00,81.4,0.0,29.97,WSW,255,3.0,14.0,0,0.00,,,0.00,Weather View 32 v70,2013-06-12 19:23:00,
2013-06-12 12:28:00,81.8,0.0,29.97,SW,222,9.0,14.0,0,0.00,,,0.00,Weather View 32 v70,2013-06-12 19:28:00,
2013-06-12 12:33:00,82.6,0.0,29.97,South,183,7.0,14.0,0,0.00,,,0.00,Weather View 32 v70,2013-06-12 19:33:00,
2013-06-12 12:38:00,82.4,0.0,29.97,WSW,239,5.0,14.0,0,0.00,,,0.00,Weather View 32 v70,2013-06-12 19:38:00,
2013-06-12 12:43:00,83.0,0.0,29.97,West,262,7.0,14.0,0,0.00,,,0.00,Weather View 32 v70,2013-06-12 19:43:00,
2013-06-12 12:48:00,83.4,0.0,29.96,SSW,198,7.0,14.0,0,0.00,,,0.00,Weather View 32 v70,2013-06-12 19:48:00,
2013-06-12 12:53:00,83.8,0.0,29.96,SW,222,8.0,14.0,0,0.00,,,0.00,Weather View 32 v70,2013-06-12 19:53:00,
2013-06-12 12:58:00,84.0,0.0,29.96,WSW,257,4.0,15.0,0,0.00,,,0.00,Weather View 32 v70,2013-06-12 19:58:00,
2013-06-12 13:03:00,83.4,0.0,29.96,SW,235,5.0,15.0,0,0.00,,,0.00,Weather View 32 v70,2013-06-12 20:03:00,
2013-06-12 13:08:00,84.1,0.0,29.96,West,262,8.0,15.0,0,0.00,,,0.00,Weather View 32 v70,2013-06-12 20:08:00,
2013-06-12 13:13:00,83.7,0.0,29.95,SW,222,7.0,16.0,0,0.00,,,0.00,Weather View 32 v70,2013-06-12 20:13:00,
2013-06-12 13:18:00,84.4,0.0,29.95,South,186,9.0,16.0,0,0.00,,,0.00,Weather View 32 v70,2013-06-12 20:18:00,
2013-06-12 13:23:00,85.6,0.0,29.95,SW,222,4.0,16.0,0,0.00,,,0.00,Weather View 32 v70,2013-06-12 20:23:00,
2013-06-12 13:28:00,84.1,0.0,29.95,South,184,6.0,16.0,0,0.00,,,0.00,Weather View 32 v70,2013-06-12 20:28:00,
2013-06-12 13:33:00,84.0,0.0,29.95,South,190,8.0,16.0,0,0.00,,,0.00,Weather View 32 v70,2013-06-12 20:33:00,
2013-06-12 13:38:00,84.7,0.0,29.95,SW,231,6.0,16.0,0,0.00,,,0.00,Weather View 32 v70,2013-06-12 20:38:00,
2013-06-12 13:43:00,85.3,0.0,29.95,SSW,200,5.0,16.0,0,0.00,,,0.00,Weather View 32 v70,2013-06-12 20:43:00,
2013-06-12 13:48:00,85.1,0.0,29.95,West,259,5.0,17.0,0,0.00,,,0.00,Weather View 32 v70,2013-06-12 20:48:00,
2013-06-12 13:53:00,85.5,0.0,29.95,SW,222,4.0,17.0,0,0.00,,,0.00,Weather View 32 v70,2013-06-12 20:53:00,
2013-06-12 13:58:00,85.8,0.0,29.94,West,264,7.0,17.0,0,0.00,,,0.00,Weather View 32 v70,2013-06-12 20:58:00,
2013-06-12 14:03:00,84.9,0.0,29.94,SW,214,4.0,17.0,0,0.00,,,0.00,Weather View 32 v70,2013-06-12 21:03:00,
2013-06-12 14:08:00,85.9,0.0,29.94,SW,232,9.0,19.0,0,0.00,,,0.00,Weather View 32 v70,2013-06-12 21:08:00,
2013-06-12 14:13:00,85.6,0.0,29.94,SSW,210,9.0,19.0,0,0.00,,,0.00,Weather View 32 v70,2013-06-12 21:13:00,
2013-06-12 14:18:00,85.5,0.0,29.94,South,187,9.0,19.0,0,0.00,,,0.00,Weather View 32 v70,2013-06-12 21:18:00,
2013-06-12 14:23:00,85.1,0.0,29.94,WSW,242,16.0,19.0,0,0.00,,,0.00,Weather View 32 v70,2013-06-12 21:23:00,
2013-06-12 14:28:00,85.3,0.0,29.94,SSW,208,8.0,20.0,0,0.00,,,0.00,Weather View 32 v70,2013-06-12 21:28:00,
2013-06-12 14:33:00,85.8,0.0,29.94,West,260,10.0,20.0,0,0.00,,,0.00,Weather View 32 v70,2013-06-12 21:33:00,
2013-06-12 14:38:00,85.5,0.0,29.94,SW,226,8.0,20.0,0,0.00,,,0.00,Weather View 32 v70,2013-06-12 21:38:00,
2013-06-12 14:43:00,85.4,0.0,29.94,SW,233,7.0,20.0,0,0.00,,,0.00,Weather View 32 v70,2013-06-12 21:43:00,
2013-06-12 14:48:00,85.9,0.0,29.94,SSE,155,6.0,20.0,0,0.00,,,0.00,Weather View 32 v70,2013-06-12 21:48:00,
2013-06-12 14:53:00,86.2,0.0,29.94,SW,222,11.0,20.0,0,0.00,,,0.00,Weather View 32 v70,2013-06-12 21:53:00,
2013-06-12 14:58:00,85.9,0.0,29.94,SW,218,11.0,20.0,0,0.00,,,0.00,Weather View 32 v70,2013-06-12 21:58:00,
2013-06-12 15:03:00,85.5,0.0,29.94,WSW,256,9.0,20.0,0,0.00,,,0.00,Weather View 32 v70,2013-06-12 22:03:00,
2013-06-12 15:08:00,84.8,0.0,29.94,SE,143,9.0,20.0,0,0.00,,,0.00,Weather View 32 v70,2013-06-12 22:08:00,
2013-06-12 15:13:00,85.2,0.0,29.93,SSW,210,4.0,20.0,0,0.00,,,0.00,Weather View 32 v70,2013-06-12 22:13:00,
2013-06-12 15:18:00,85.4,0.0,29.93,WSW,250,9.0,20.0,0,0.00,,,0.00,Weather View 32 v70,2013-06-12 22:18:00,
2013-06-12 15:23:00,85.7,0.0,29.93,SW,233,15.0,20.0,0,0.00,,,0.00,Weather View 32 v70,2013-06-12 22:23:00,
2013-06-12 15:28:00,85.0,0.0,29.93,West,276,8.0,20.0,0,0.00,,,0.00,Weather View 32 v70,2013-06-12 22:28:00,
2013-06-12 15:33:00,85.4,0.0,29.93,West,267,15.0,20.0,0,0.00,,,0.00,Weather View 32 v70,2013-06-12 22:33:00,
2013-06-12 15:38:00,85.6,0.0,29.93,SW,229,6.0,20.0,0,0.00,,,0.00,Weather View 32 v70,2013-06-12 22:38:00,
2013-06-12 15:43:00,86.2,0.0,29.93,SW,214,6.0,20.0,0,0.00,,,0.00,Weather View 32 v70,2013-06-12 22:43:00,
2013-06-12 15:48:00,85.5,0.0,29.93,SSW,197,12.0,20.0,0,0.00,,,0.00,Weather View 32 v70,2013-06-12 22:48:00,
2013-06-12 15:53:00,84.8,0.0,29.93,WSW,238,15.0,20.0,0,0.00,,,0.00,Weather View 32 v70,2013-06-12 22:53:00,
2013-06-12 15:58:00,84.9,0.0,29.92,WNW,287,7.0,20.0,0,0.00,,,0.00,Weather View 32 v70,2013-06-12 22:58:00,
2013-06-12 16:03:00,85.4,0.0,29.92,West,273,5.0,20.0,0,0.00,,,0.00,Weather View 32 v70,2013-06-12 23:03:00,
2013-06-12 16:08:00,84.8,0.0,29.92,WSW,239,8.0,20.0,0,0.00,,,0.00,Weather View 32 v70,2013-06-12 23:08:00,
2013-06-12 16:13:00,84.1,0.0,29.92,SSE,156,3.0,20.0,0,0.00,,,0.00,Weather View 32 v70,2013-06-12 23:13:00,
2013-06-12 16:18:00,84.7,0.0,29.92,West,278,7.0,20.0,0,0.00,,,0.00,Weather View 32 v70,2013-06-12 23:18:00,
2013-06-12 16:23:00,84.4,0.0,29.92,West,267,19.0,21.0,0,0.00,,,0.00,Weather View 32 v70,2013-06-12 23:23:00,
2013-06-12 16:28:00,84.4,0.0,29.92,SW,218,7.0,21.0,0,0.00,,,0.00,Weather View 32 v70,2013-06-12 23:28:00,
2013-06-12 16:33:00,84.4,0.0,29.92,WNW,291,7.0,21.0,0,0.00,,,0.00,Weather View 32 v70,2013-06-12 23:33:00,
2013-06-12 16:38:00,84.4,0.0,29.92,WSW,257,12.0,21.0,0,0.00,,,0.00,Weather View 32 v70,2013-06-12 23:38:00,
2013-06-12 16:43:00,84.5,0.0,29.92,SW,232,8.0,21.0,0,0.00,,,0.00,Weather View 32 v70,2013-06-12 23:43:00,
2013-06-12 16:48:00,84.3,0.0,29.92,West,263,6.0,21.0,0,0.00,,,0.00,Weather View 32 v70,2013-06-12 23:48:00,
2013-06-12 16:53:00,83.6,0.0,29.91,West,263,11.0,23.0,0,0.00,,,0.00,Weather View 32 v70,2013-06-12 23:53:00,
2013-06-12 16:58:00,83.5,0.0,29.92,South,177,10.0,23.0,0,0.00,,,0.00,Weather View 32 v70,2013-06-12 23:58:00,
2013-06-12 17:03:00,83.3,0.0,29.92,SW,229,9.0,23.0,0,0.00,,,0.00,Weather View 32 v70,2013-06-13 00:03:00,
2013-06-12 17:08:00,83.3,0.0,29.91,West,281,10.0,23.0,0,0.00,,,0.00,Weather View 32 v70,2013-06-13 00:08:00,
2013-06-12 17:10:00,83.5,0.0,29.91,West,262,4.0,23.0,0,0.00,,,0.00,Weather View 32 v70,2013-06-13 00:10:00,
2013-06-12 17:13:00,83.3,0.0,29.91,SSW,212,7.0,23.0,0,0.00,,,0.00,Weather View 32 v70,2013-06-13 00:13:00,
2013-06-12 17:18:00,83.5,0.0,29.91,WSW,238,10.0,23.0,0,0.00,,,0.00,Weather View 32 v70,2013-06-13 00:18:00,
2013-06-12 17:43:00,81.9,0.0,29.91,SW,215,7.0,23.0,0,0.00,,,0.00,Weather View 32 v70,2013-06-13 00:43:00,
2013-06-12 17:48:00,80.7,0.0,29.91,SSW,193,17.0,23.0,0,0.00,,,0.00,Weather View 32 v70,2013-06-13 00:48:00,
2013-06-12 17:53:00,80.4,0.0,29.91,WSW,252,10.0,23.0,0,0.00,,,0.00,Weather View 32 v70,2013-06-13 00:53:00,
2013-06-12 17:58:00,80.4,0.0,29.91,West,277,9.0,22.0,0,0.00,,,0.00,Weather View 32 v70,2013-06-13 00:58:00,
2013-06-12 18:03:00,80.3,0.0,29.91,South,172,4.0,22.0,0,0.00,,,0.00,Weather View 32 v70,2013-06-13 01:03:00,
2013-06-12 18:08:00,80.3,0.0,29.91,SSW,194,7.0,21.0,0,0.00,,,0.00,Weather View 32 v70,2013-06-13 01:08:00,
2013-06-12 18:13:00,79.1,0.0,29.91,WSW,242,6.0,19.0,0,0.00,,,0.00,Weather View 32 v70,2013-06-13 01:13:00,
2013-06-12 18:18:00,80.1,0.0,29.91,SW,225,3.0,19.0,0,0.00,,,0.00,Weather View 32 v70,2013-06-13 01:18:00,
2013-06-12 18:23:00,79.1,0.0,29.91,WSW,239,11.0,19.0,0,0.00,,,0.00,Weather View 32 v70,2013-06-13 01:23:00,
2013-06-12 18:28:00,77.0,0.0,29.91,WSW,240,5.0,19.0,0,0.00,,,0.00,Weather View 32 v70,2013-06-13 01:28:00,
2013-06-12 18:33:00,77.0,0.0,29.91,WSW,253,12.0,19.0,0,0.00,,,0.00,Weather View 32 v70,2013-06-13 01:33:00,
2013-06-12 18:38:00,77.3,0.0,29.91,SW,215,11.0,20.0,0,0.00,,,0.00,Weather View 32 v70,2013-06-13 01:38:00,
2013-06-12 18:43:00,76.9,0.0,29.91,SSW,203,6.0,20.0,0,0.00,,,0.00,Weather View 32 v70,2013-06-13 01:43:00,
2013-06-12 18:48:00,76.9,0.0,29.91,SW,215,4.0,20.0,0,0.00,,,0.00,Weather View 32 v70,2013-06-13 01:48:00,
2013-06-12 18:53:00,77.0,0.0,29.91,South,170,4.0,20.0,0,0.00,,,0.00,Weather View 32 v70,2013-06-13 01:53:00,
2013-06-12 18:58:00,76.9,0.0,29.91,SSW,200,0.0,20.0,0,0.00,,,0.00,Weather View 32 v70,2013-06-13 01:58:00,
2013-06-12 19:03:00,76.4,0.0,29.91,West,267,12.0,20.0,0,0.00,,,0.00,Weather View 32 v70,2013-06-13 02:03:00,
2013-06-12 19:08:00,76.0,0.0,29.91,SSW,198,11.0,20.0,0,0.00,,,0.00,Weather View 32 v70,2013-06-13 02:08:00,
2013-06-12 19:13:00,75.5,0.0,29.91,SW,225,5.0,20.0,0,0.00,,,0.00,Weather View 32 v70,2013-06-13 02:13:00,
2013-06-12 19:18:00,75.4,0.0,29.92,WSW,246,4.0,20.0,0,0.00,,,0.00,Weather View 32 v70,2013-06-13 02:18:00,
2013-06-12 19:23:00,74.9,0.0,29.92,SSW,212,2.0,20.0,0,0.00,,,0.00,Weather View 32 v70,2013-06-13 02:23:00,
2013-06-12 19:28:00,74.6,0.0,29.92,NNE,18,0.0,20.0,0,0.00,,,0.00,Weather View 32 v70,2013-06-13 02:28:00,
2013-06-12 19:33:00,74.8,0.0,29.93,NW,326,1.0,20.0,0,0.00,,,0.00,Weather View 32 v70,2013-06-13 02:33:00,
2013-06-12 19:38:00,74.3,0.0,29.93,SSW,205,1.0,20.0,0,0.00,,,0.00,Weather View 32 v70,2013-06-13 02:38:00,
2013-06-12 19:43:00,74.6,0.0,29.93,West,274,4.0,16.0,0,0.00,,,0.00,Weather View 32 v70,2013-06-13 02:43:00,
2013-06-12 19:48:00,74.1,0.0,29.93,SW,214,5.0,16.0,0,0.00,,,0.00,Weather View 32 v70,2013-06-13 02:48:00,
2013-06-12 19:53:00,73.8,0.0,29.93,WSW,240,4.0,16.0,0,0.00,,,0.00,Weather View 32 v70,2013-06-13 02:53:00,
2013-06-12 19:58:00,73.2,0.0,29.93,South,186,2.0,16.0,0,0.00,,,0.00,Weather View 32 v70,2013-06-13 02:58:00,
2013-06-12 20:03:00,72.1,0.0,29.93,SSW,207,3.0,16.0,0,0.00,,,0.00,Weather View 32 v70,2013-06-13 03:03:00,
2013-06-12 20:08:00,71.6,0.0,29.93,SW,229,5.0,15.0,0,0.00,,,0.00,Weather View 32 v70,2013-06-13 03:08:00,
2013-06-12 20:13:00,71.0,0.0,29.93,SW,232,6.0,15.0,0,0.00,,,0.00,Weather View 32 v70,2013-06-13 03:13:00,
2013-06-12 20:18:00,70.4,0.0,29.93,SW,229,9.0,15.0,0,0.00,,,0.00,Weather View 32 v70,2013-06-13 03:18:00,
2013-06-12 20:23:00,70.5,0.0,29.93,WSW,249,6.0,15.0,0,0.00,,,0.00,Weather View 32 v70,2013-06-13 03:23:00,
2013-06-12 20:28:00,70.0,0.0,29.93,WSW,248,4.0,16.0,0,0.00,,,0.00,Weather View 32 v70,2013-06-13 03:28:00,
2013-06-12 20:33:00,69.7,0.0,29.93,WSW,238,7.0,16.0,0,0.00,,,0.00,Weather View 32 v70,2013-06-13 03:33:00,
2013-06-12 20:38:00,69.4,0.0,29.93,WSW,239,11.0,17.0,0,0.00,,,0.00,Weather View 32 v70,2013-06-13 03:38:00,
2013-06-12 20:43:00,68.9,0.0,29.93,SW,228,6.0,17.0,0,0.00,,,0.00,Weather View 32 v70,2013-06-13 03:43:00,
2013-06-12 20:48:00,68.5,0.0,29.93,SW,221,12.0,17.0,0,0.00,,,0.00,Weather View 32 v70,2013-06-13 03:48:00,
2013-06-12 20:53:00,68.0,0.0,29.93,SSW,197,6.0,17.0,0,0.00,,,0.00,Weather View 32 v70,2013-06-13 03:53:00,
2013-06-12 20:58:00,68.1,0.0,29.94,WSW,257,8.0,17.0,0,0.00,,,0.00,Weather View 32 v70,2013-06-13 03:58:00,
2013-06-12 21:01:00,67.9,0.0,29.93,WSW,240,15.0,17.0,0,0.00,,,0.00,Weather View 32 v70,2013-06-13 04:01:00,
2013-06-12 21:06:00,67.3,0.0,29.94,West,273,6.0,19.0,0,0.00,,,0.00,Weather View 32 v70,2013-06-13 04:06:00,
2013-06-12 21:11:00,67.0,0.0,29.94,WSW,253,9.0,19.0,0,0.00,,,0.00,Weather View 32 v70,2013-06-13 04:11:00,
2013-06-12 21:16:00,66.9,0.0,29.94,WSW,252,11.0,19.0,0,0.00,,,0.00,Weather View 32 v70,2013-06-13 04:16:00,
2013-06-12 21:21:00,66.6,0.0,29.94,West,280,8.0,19.0,0,0.00,,,0.00,Weather View 32 v70,2013-06-13 04:21:00,
2013-06-12 21:26:00,66.5,0.0,29.95,West,273,5.0,19.0,0,0.00,,,0.00,Weather View 32 v70,2013-06-13 04:26:00,
2013-06-12 21:31:00,66.0,0.0,29.95,SW,222,10.0,19.0,0,0.00,,,0.00,Weather View 32 v70,2013-06-13 04:31:00,
2013-06-12 21:36:00,65.5,0.0,29.95,SW,225,12.0,19.0,0,0.00,,,0.00,Weather View 32 v70,2013-06-13 04:36:00,
2013-06-12 21:41:00,65.3,0.0,29.95,WSW,257,7.0,19.0,0,0.00,,,0.00,Weather View 32 v70,2013-06-13 04:41:00,
2013-06-12 21:46:00,65.1,0.0,29.95,WSW,246,9.0,19.0,0,0.00,,,0.00,Weather View 32 v70,2013-06-13 04:46:00,
2013-06-12 21:51:00,64.8,0.0,29.95,SW,235,5.0,19.0,0,0.00,,,0.00,Weather View 32 v70,2013-06-13 04:51:00,
2013-06-12 21:56:00,64.1,0.0,29.95,WSW,248,6.0,19.0,0,0.00,,,0.00,Weather View 32 v70,2013-06-13 04:56:00,
2013-06-12 22:01:00,64.0,0.0,29.95,SW,229,9.0,19.0,0,0.00,,,0.00,Weather View 32 v70,2013-06-13 05:01:00,
2013-06-12 22:06:00,63.7,0.0,29.95,West,276,1.0,19.0,0,0.00,,,0.00,Weather View 32 v70,2013-06-13 05:06:00,
2013-06-12 22:11:00,63.6,0.0,29.96,West,267,2.0,18.0,0,0.00,,,0.00,Weather View 32 v70,2013-06-13 05:11:00,
2013-06-12 22:19:00,63.8,0.0,29.96,WNW,293,0.0,18.0,0,0.00,,,0.00,Weather View 32 v70,2013-06-13 05:19:00,
2013-06-12 22:24:00,64.4,0.0,29.96,WSW,243,0.0,18.0,0,0.00,,,0.00,Weather View 32 v70,2013-06-13 05:24:00,
2013-06-12 22:29:00,63.9,0.0,29.96,SE,134,1.0,17.0,0,0.00,,,0.00,Weather View 32 v70,2013-06-13 05:29:00,
2013-06-12 22:34:00,64.0,0.0,29.96,SW,219,0.0,16.0,0,0.00,,,0.00,Weather View 32 v70,2013-06-13 05:34:00,
2013-06-12 22:39:00,63.8,0.0,29.96,ESE,104,3.0,15.0,0,0.00,,,0.00,Weather View 32 v70,2013-06-13 05:39:00,
2013-06-12 22:44:00,63.6,0.0,29.97,ENE,72,1.0,15.0,0,0.00,,,0.00,Weather View 32 v70,2013-06-13 05:44:00,
2013-06-12 22:49:00,63.5,0.0,29.97,ESE,118,0.0,15.0,0,0.00,,,0.00,Weather View 32 v70,2013-06-13 05:49:00,
2013-06-12 22:54:00,62.5,0.0,29.97,SW,229,3.0,15.0,0,0.00,,,0.00,Weather View 32 v70,2013-06-13 05:54:00,
2013-06-12 22:59:00,62.8,0.0,29.97,SE,142,1.0,12.0,0,0.00,,,0.00,Weather View 32 v70,2013-06-13 05:59:00,
2013-06-12 23:04:00,62.9,0.0,29.97,SE,125,0.0,11.0,0,0.00,,,0.00,Weather View 32 v70,2013-06-13 06:04:00,
2013-06-12 23:09:00,62.8,0.0,29.97,North,357,1.0,11.0,0,0.00,,,0.00,Weather View 32 v70,2013-06-13 06:09:00,
2013-06-12 23:14:00,62.0,0.0,29.97,NNW,343,0.0,11.0,0,0.00,,,0.00,Weather View 32 v70,2013-06-13 06:14:00,
2013-06-12 23:19:00,62.1,0.0,29.96,SW,228,3.0,7.0,0,0.00,,,0.00,Weather View 32 v70,2013-06-13 06:19:00,
2013-06-12 23:24:00,62.6,0.0,29.96,WSW,255,5.0,8.0,0,0.00,,,0.00,Weather View 32 v70,2013-06-13 06:24:00,
2013-06-12 23:29:00,62.3,0.0,29.97,WSW,253,3.0,8.0,0,0.00,,,0.00,Weather View 32 v70,2013-06-13 06:29:00,
2013-06-12 23:34:00,62.1,0.0,29.97,SW,215,1.0,9.0,0,0.00,,,0.00,Weather View 32 v70,2013-06-13 06:34:00,
2013-06-12 23:39:00,62.0,0.0,29.97,West,271,6.0,11.0,0,0.00,,,0.00,Weather View 32 v70,2013-06-13 06:39:00,
2013-06-12 23:44:00,62.1,0.0,29.97,WNW,300,2.0,11.0,0,0.00,,,0.00,Weather View 32 v70,2013-06-13 06:44:00,
2013-06-12 23:49:00,62.5,0.0,29.98,WNW,287,0.0,11.0,0,0.00,,,0.00,Weather View 32 v70,2013-06-13 06:49:00,
2013-06-12 23:54:00,62.1,0.0,29.98,WNW,287,0.0,11.0,0,0.00,,,0.00,Weather View 32 v70,2013-06-13 06:54:00,
2013-06-12 23:59:00,61.9,0.0,29.98,WNW,287,0.0,11.0,0,0.00,,,0.00,Weather View 32 v70,2013-06-13 06:59:00,